Temp
12 12 12 12 12 11 11 11 10 10 10 10 10 10 10 10 10 10 10 10 10 10 10 10 10 10 10 10 9 9 9 9 8 9 9 9 9 8 8 8 8 7 7 7 7 7 7 6 6 6 6 5 5 5 5 5 4 4 4 4 4 4 3 3 3 3 2 2 2
12 12 12 12 11 11 11 10 10 10 10 10 10 10 10 10 10 10 10 10 10 10 10 10 10 10 10 10 9 9 8 8 8 8 8 8 8 8 8 8 7 7 7 7 7 6 6 6 6 6 5 5 5 5 5 5 4 4 4 4 3 3 3 3 3 3 2 2 2
12 12 11 11 11 10 10 10 10 10 10 10 10 10 10 10 9 9 10 10 10 10 10 10 10 10 10 9 9 8 8 8 8 8 8 8 8 8 8 7 7 7 7 6 6 6 6 6 6 5 5 5 5 5 4 4 4 4 4 3 3 3 3 3 3 3 2 2 2
11 11 11 11 10 10 10 11 11 10 10 10 10 9 9 9 9 9 10 10 10 10 10 10 10 10 9 9 9 8 8 8 8 8 8 8 8 8 7 7 7 7 6 6 6 6 6 6 5 5 5 5 4 4 4 4 4 4 3 3 3 3 3 3 3 2 2 2 2
11 11 10 10 10 10 11 11 11 10 10 10 10 9 9 9 9 9 10 10 10 10 10 10 10 9 9 9 8 8 8 8 8 8 8 8 8 7 7 7 7 6 6 6 6 6 5 5 5 5 5 4 4 4 4 4 3 3 3 3 3 3 3 3 2 2 2 2 2
10 10 10 10 10 10 10 10 10 10 10 10 10 9 9 9 9 9 10 10 10 10 10 10 9 9 9 9 8 8 8 8 8 8 8 8 7 7 7 7 6 6 6 6 6 5 5 5 5 4 4 4 4 4 4 3 3 3 3 3 3 3 3 2 2 2 2 2 2
10 10 10 10 10 10 10 10 10 10 10 10 9 9 9 9 9 9 10 10 10 9 9 9 9 9 9 8 8 8 8 8 8 8 8 7 7 7 7 6 6 6 6 5 5 5 5 5 4 4 4 4 4 4 3 3 3 3 3 3 2 2 2 2 2 2 2 2 2
10 10 10 10 10 10 10 10 10 10 9 9 9 9 9 9 9 9 10 10 9 9 9 9 9 9 9 8 8 8 8 8 8 8 7 7 7 7 6 6 6 6 5 5 5 5 5 4 4 4 4 4 4 3 3 3 3 3 3 2 2 2 2 2 2 2 2 2 1
10 10 10 10 10 10 10 10 10 9 9 9 9 9 9 9 9 9 9 9 9 9 9 9 9 8 8 8 8 8 8 8 8 7 7 7 7 6 6 6 6 5 5 5 5 4 4 4 4 4 4 3 3 3 3 3 3 3 3 2 2 2 2 2 2 1 1 1 1
10 10 10 10 10 10 10 10 9 9 9 9 9 9 9 9 9 9 9 9 9 9 9 9 8 8 8 8 8 8 8 8 7 7 7 7 6 6 6 6 5 5 5 5 4 4 4 4 4 4 3 3 3 3 3 3 3 3 2 2 2 2 2 1 1 1 1 0 0
10 10 10 10 10 10 9 9 9 9 9 9 9 9 9 9 9 9 9 9 9 9 9 9 8 8 8 8 7 7 7 7 7 7 7 6 6 6 6 5 5 5 5 4 4 4 4 4 3 3 3 3 3 3 3 3 3 2 2 2 2 2 1 1 1 0 0 0 -0
9 9 10 10 10 9 9 9 9 9 9 10 10 9 9 9 9 9 9 9 9 9 9 8 8 8 8 7 7 7 7 7 7 7 6 6 6 6 5 5 5 5 4 4 4 4 4 3 3 3 3 3 3 2 2 2 2 2 2 2 2 1 1 1 0 0 -0 -0 -0
9 9 9 9 9 9 9 9 9 10 10 10 9 9 9 9 9 9 9 9 9 9 8 8 8 8 7 7 7 7 7 7 7 6 6 6 6 5 5 5 5 4 4 4 4 3 3 3 3 3 3 2 2 2 2 2 2 2 2 2 1 1 1 0 0 -0 -0 -0 -1
9 9 9 9 9 9 9 9 10 10 10 10 9 9 9 9 9 9 9 9 8 8 8 8 8 7 7 7 7 7 7 6 6 6 6 6 5 5 5 5 4 4 4 4 3 3 3 3 3 3 2 2 2 2 2 2 2 2 2 1 1 1 1 0 0 -0 -0 -1 -1
9 9 9 8 8 9 9 9 10 9 9 9 9 9 9 9 9 9 8 8 8 8 8 8 8 7 7 7 7 6 6 6 6 6 6 5 5 5 5 4 4 4 4 3 3 3 3 3 2 2 2 2 2 2 2 2 2 1 1 1 1 1 0 0 -0 -0 -1 -1 -1
9 8 8 8 9 9 9 9 9 9 9 9 9 9 9 9 8 8 8 8 8 8 8 8 7 7 7 7 6 6 6 6 6 6 5 5 5 5 4 4 4 4 3 3 3 3 2 2 2 2 2 2 2 2 2 2 1 1 1 1 1 0 0 -0 -0 -1 -1 -1 -2
8 8 8 9 9 10 10 9 9 9 9 9 9 9 9 8 8 8 8 8 8 8 7 7 7 7 7 6 6 6 6 6 6 5 5 5 5 4 4 4 4 3 3 3 3 2 2 2 2 2 2 2 2 2 2 2 1 1 1 1 0 0 -0 -0 -1 -1 -1 -2 -2
8 8 8 9 9 10 9 9 9 9 9 9 9 8 8 8 8 8 8 8 8 7 7 7 7 6 6 6 6 6 6 6 5 5 5 5 4 4 4 4 3 3 3 3 2 2 2 2 2 2 2 2 2 2 2 1 1 1 1 0 -0 -0 -1 -1 -1 -1 -2 -2 -2
8 8 8 9 9 9 9 9 9 9 9 9 8 8 8 8 8 8 8 8 7 7 7 7 6 6 6 6 6 6 5 5 5 5 5 4 4 4 4 3 3 3 2 2 2 2 2 2 2 2 2 2 2 1 1 1 1 0 0 -0 -0 -1 -1 -1 -2 -2 -2 -2 -2
7 8 8 8 9 9 9 9 9 9 9 8 8 8 8 8 8 8 8 7 7 7 6 6 6 6 6 6 6 5 5 5 5 5 4 4 4 4 3 3 3 2 2 2 2 2 2 2 2 2 1 1 1 1 1 1 0 0 -0 -1 -1 -1 -2 -2 -2 -2 -2 -2 -2
7 7 8 8 9 9 9 9 9 9 9 8 8 8 8 8 8 8 7 7 7 6 6 6 6 6 6 6 5 5 5 5 5 4 4 4 4 3 3 3 2 2 2 2 2 2 2 2 1 1 1 1 1 1 0 -0 -0 -1 -1 -1 -1 -2 -2 -2 -2 -2 -2 -2 -3
7 8 8 8 9 9 9 9 9 9 9 9 8 8 8 8 8 7 7 7 6 6 6 6 6 6 5 5 5 5 5 4 4 4 4 4 3 3 3 2 2 2 2 2 2 1 1 1 1 1 1 1 0 -0 -1 -1 -1 -1 -1 -1 -2 -2 -2 -2 -2 -2 -2 -3 -3
7 8 8 8 9 9 9 9 8 8 9 8 8 8 8 8 7 7 7 6 6 6 6 6 6 5 5 5 5 5 4 4 4 4 4 3 3 3 2 2 2 2 2 1 1 1 1 1 1 1 0 0 -0 -1 -1 -1 -1 -2 -2 -2 -2 -2 -2 -2 -2 -2 -3 -3 -3
8 8 8 8 9 9 8 8 8 8 8 8 8 8 8 7 7 7 6 6 6 6 6 6 5 5 5 5 5 4 4 4 4 3 3 3 3 2 2 2 2 2 1 1 1 1 1 1 1 0 0 -0 -0 -1 -1 -1 -1 -1 -2 -2 -2 -2 -2 -2 -2 -2 -3 -3 -4
8 8 9 8 8 8 8 8 8 8 8 8 8 8 7 7 7 6 6 6 6 6 6 5 5 5 5 5 4 4 4 4 3 3 3 3 2 2 2 2 1 1 1 1 1 1 1 1 1 0 0 0 -0 -0 -1 -1 -1 -1 -2 -2 -2 -2 -2 -2 -2 -3 -3 -4 -4
9 9 9 8 8 8 8 8 8 8 8 8 8 7 7 7 6 6 6 6 6 5 5 5 5 5 5 4 4 4 4 3 3 3 3 2 2 2 2 1 1 1 1 1 1 1 1 1 0 0 0 -0 -0 -0 -1 -1 -1 -1 -1 -2 -2 -2 -2 -3 -3 -3 -4 -4 -4
9 9 8 8 8 8 8 8 8 8 8 8 8 7 7 6 6 6 6 6 5 5 5 5 5 5 4 4 4 4 3 3 3 3 2 2 2 2 1 1 1 1 1 1 1 1 0 0 0 0 -0 -0 -0 -1 -1 -1 -1 -1 -2 -2 -2 -3 -3 -3 -3 -4 -4 -4 -5
8 8 8 8 8 8 8 8 8 8 8 8 7 7 6 6 6 6 6 5 5 5 5 5 4 4 4 4 4 3 3 3 3 2 2 2 2 1 1 1 1 1 1 1 0 0 0 0 -0 -0 -0 -1 -1 -1 -1 -1 -1 -1 -2 -2 -3 -3 -3 -4 -4 -4 -4 -5 -5
8 8 8 8 8 8 8 8 8 8 8 7 7 7 6 6 6 6 5 5 5 5 5 4 4 4 4 3 3 3 3 2 2 2 2 1 1 1 1 1 1 1 0 0 0 0 -0 -0 -0 -0 -1 -1 -1 -1 -1 -1 -1 -2 -2 -2 -3 -3 -4 -4 -4 -4 -5 -5 -5
8 8 8 8 8 8 8 8 8 7 7 7 6 6 6 6 6 5 5 5 5 5 4 4 4 4 3 3 3 3 2 2 2 2 1 1 1 1 1 0 0 0 0 0 -0 -0 -0 -0 -1 -1 -1 -1 -1 -1 -1 -1 -1 -2 -2 -3 -3 -3 -4 -4 -4 -5 -5 -5 -5
7 7 8 8 8 8 8 8 7 7 7 6 6 6 6 6 5 5 5 5 5 4 4 4 3 3 3 3 3 2 2 2 2 1 1 1 1 1 0 0 0 0 0 -0 -0 -0 -0 -1 -1 -1 -1 -1 -1 -1 -1 -1 -2 -2 -2 -3 -3 -4 -4 -5 -5 -5 -5 -6 -6
7 7 7 8 8 8 7 7 7 6 6 6 6 6 6 5 5 5 5 4 4 4 4 3 3 3 3 3 2 2 2 2 1 1 1 1 0 0 0 0 0 0 0 -0 -0 -1 -1 -1 -1 -1 -1 -1 -1 -1 -1 -1 -2 -2 -3 -3 -4 -4 -5 -5 -5 -5 -6 -6 -6
7 7 7 8 8 7 7 7 6 6 6 6 6 6 5 5 5 5 4 4 4 3 3 3 3 3 2 2 2 2 1 1 1 1 1 0 0 0 -0 -0 -0 -0 -0 -0 -1 -1 -1 -1 -1 -1 -1 -1 -1 -1 -1 -2 -2 -3 -3 -4 -4 -5 -5 -5 -5 -6 -6 -6 -6
7 7 7 7 7 7 7 6 6 6 6 6 6 5 5 5 5 4 4 4 3 3 3 3 2 2 2 2 2 1 1 1 1 1 0 0 0 0 -0 -0 -0 -0 -0 -1 -1 -1 -1 -1 -1 -1 -1 -1 -1 -1 -1 -2 -2 -3 -4 -4 -5 -5 -5 -5 -6 -6 -6 -6 -6
7 7 7 7 7 7 6 6 6 6 6 6 5 5 5 4 4 4 4 3 3 3 3 2 2 2 2 2 1 1 1 1 0 0 0 0 -0 -0 -0 -1 -0 -0 -0 -1 -1 -1 -1 -1 -1 -1 -1 -1 -1 -1 -2 -2 -3 -4 -4 -4 -5 -5 -5 -6 -6 -6 -6 -6 -7
7 7 7 7 7 6 6 6 6 6 5 5 5 5 4 4 4 3 3 3 3 2 2 2 2 2 1 1 1 1 1 0 0 0 0 -0 -0 -0 -1 -1 -1 -1 -1 -1 -1 -1 -1 -1 -1 -1 -1 -1 -1 -2 -2 -3 -3 -4 -4 -5 -5 -5 -6 -6 -6 -6 -6 -6 -7
6 6 7 7 6 6 6 6 6 5 5 5 5 4 4 4 3 3 3 3 2 2 2 2 2 1 1 1 1 0 0 0 0 0 -0 -0 -0 -1 -1 -1 -1 -1 -1 -1 -1 -1 -1 -1 -1 -1 -1 -2 -2 -2 -3 -3 -4 -4 -5 -5 -5 -6 -6 -6 -6 -6 -6 -7 -7
6 6 6 6 6 6 6 6 5 5 5 4 4 4 3 3 3 3 2 2 2 2 2 1 1 1 1 1 0 0 0 -0 -0 -0 -0 -0 -0 -1 -1 -1 -1 -1 -1 -1 -1 -1 -1 -1 -2 -2 -2 -2 -2 -3 -3 -4 -4 -5 -5 -6 -6 -6 -6 -6 -6 -6 -7 -7 -7
6 6 6 6 6 6 5 5 5 5 4 4 4 3 3 3 3 2 2 2 2 2 1 1 1 1 0 0 0 0 -0 -0 -0 -0 -0 -1 -1 -1 -1 -1 -1 -2 -2 -1 -1 -1 -1 -2 -2 -2 -2 -2 -3 -3 -4 -4 -5 -5 -6 -6 -6 -6 -6 -6 -7 -7 -7 -7 -7
6 6 6 6 6 5 5 5 4 4 4 3 3 3 3 3 2 2 2 2 2 1 1 1 1 0 0 0 0 -0 -0 -0 -0 -0 -1 -1 -1 -1 -1 -1 -1 -2 -2 -2 -2 -1 -2 -2 -2 -2 -2 -3 -3 -3 -4 -5 -5 -6 -6 -6 -6 -6 -7 -7 -7 -7 -7 -7 -8
5 5 5 5 5 5 5 4 4 4 3 3 3 3 2 2 2 2 2 1 1 1 1 1 0 0 -0 -0 -0 -0 -0 -0 -1 -1 -1 -1 -1 -1 -1 -1 -1 -2 -2 -2 -2 -2 -2 -2 -2 -2 -3 -3 -3 -4 -4 -5 -6 -7 -7 -7 -7 -7 -7 -7 -7 -7 -7 -8 -8
Height
1444 1446 1447 1448 1450 1452 1454 1456 1458 1460 1462 1464 1466 1468 1470 1472 1473 1474 1476 1478 1480 1482 1484 1487 1488 1489 1491 1492 1492 1492 1492 1493 1493 1494 1494 1495 1495 1496 1496 1496 1496 1496 1496 1496 1496 1496 1496 1496 1496 1496 1496 1496 1496 1496 1496 1495 1495 1495 1495 1494 1494 1494 1494 1493 1493 1492 1492 1492 1491
1443 1444 1446 1448 1449 1451 1453 1456 1458 1460 1462 1463 1465 1467 1469 1470 1472 1474 1476 1478 1480 1482 1484 1486 1487 1488 1490 1490 1491 1491 1492 1492 1492 1493 1494 1494 1495 1495 1495 1495 1495 1495 1495 1495 1495 1495 1495 1495 1495 1495 1495 1495 1495 1495 1495 1494 1494 1494 1494 1493 1493 1493 1493 1492 1492 1492 1491 1491 1490
1442 1443 1445 1447 1448 1451 1453 1455 1457 1459 1460 1462 1464 1466 1467 1469 1471 1473 1475 1477 1479 1482 1483 1485 1486 1488 1489 1489 1490 1490 1491 1491 1492 1492 1493 1493 1494 1494 1494 1494 1494 1494 1495 1495 1495 1495 1494 1494 1494 1494 1494 1494 1494 1494 1493 1493 1493 1493 1493 1493 1492 1492 1492 1492 1491 1491 1490 1489 1489
1440 1442 1444 1446 1448 1450 1452 1454 1456 1458 1459 1461 1462 1464 1466 1468 1471 1473 1475 1477 1479 1481 1483 1484 1486 1487 1487 1488 1488 1489 1490 1490 1491 1492 1492 1493 1493 1493 1493 1494 1494 1494 1494 1494 1494 1494 1494 1494 1493 1493 1493 1493 1493 1493 1493 1492 1492 1492 1492 1492 1492 1491 1491 1490 1490 1489 1489 1488 1488
1439 1441 1443 1445 1447 1450 1452 1453 1455 1457 1458 1460 1462 1463 1466 1468 1470 1472 1474 1477 1479 1481 1482 1484 1485 1486 1487 1487 1487 1488 1489 1490 1491 1491 1492 1492 1492 1492 1493 1493 1493 1493 1493 1493 1493 1493 1493 1493 1493 1493 1492 1492 1492 1492 1492 1492 1492 1491 1491 1491 1491 1490 1490 1489 1489 1488 1488 1487 1487
1439 1441 1443 1445 1447 1449 1451 1453 1454 1456 1457 1459 1461 1463 1465 1467 1469 1471 1474 1476 1478 1480 1482 1483 1484 1485 1486 1486 1487 1487 1488 1489 1490 1490 1491 1491 1492 1492 1492 1492 1492 1492 1492 1492 1492 1492 1492 1492 1492 1492 1492 1492 1492 1491 1491 1491 1491 1490 1490 1489 1489 1489 1489 1488 1487 1487 1487 1486 1485
1438 1440 1442 1444 1447 1448 1450 1452 1453 1455 1456 1458 1460 1462 1464 1466 1468 1471 1474 1476 1478 1480 1481 1482 1483 1484 1485 1485 1486 1487 1488 1488 1489 1490 1490 1490 1491 1491 1491 1491 1492 1492 1492 1492 1492 1491 1491 1491 1491 1491 1491 1491 1491 1490 1490 1490 1490 1489 1489 1489 1488 1488 1487 1487 1486 1486 1485 1485 1484
1438 1440 1442 1444 1446 1447 1449 1450 1452 1453 1455 1457 1459 1462 1464 1466 1469 1471 1474 1476 1477 1479 1480 1482 1482 1483 1484 1485 1486 1486 1487 1488 1488 1489 1489 1490 1490 1490 1490 1491 1491 1491 1491 1491 1491 1491 1490 1490 1490 1490 1490 1490 1490 1489 1489 1489 1489 1489 1488 1488 1487 1487 1486 1486 1485 1484 1484 1483 1483
1437 1439 1442 1443 1445 1447 1448 1449 1451 1452 1454 1457 1459 1461 1463 1466 1469 1471 1473 1475 1477 1478 1480 1481 1482 1482 1483 1484 1485 1486 1487 1487 1487 1488 1488 1489 1489 1489 1490 1490 1490 1490 1490 1490 1490 1490 1490 1489 1489 1489 1489 1489 1489 1488 1488 1488 1488 1487 1487 1487 1486 1486 1485 1484 1484 1483 1482 1482 1481
1436 1438 1441 1443 1444 1446 1447 1449 1450 1452 1454 1456 1458 1461 1463 1466 1469 1471 1473 1474 1476 1477 1479 1480 1481 1482 1483 1484 1484 1485 1486 1486 1487 1487 1488 1488 1488 1489 1489 1489 1489 1489 1489 1489 1489 1489 1489 1488 1488 1488 1488 1488 1488 1487 1487 1487 1487 1487 1486 1486 1485 1484 1484 1483 1482 1482 1481 1481 1480
1436 1438 1440 1442 1443 1445 1447 1448 1450 1452 1453 1455 1458 1460 1463 1466 1469 1471 1473 1474 1476 1477 1478 1479 1480 1481 1482 1483 1484 1485 1485 1486 1486 1487 1487 1487 1487 1488 1488 1488 1488 1488 1488 1488 1488 1488 1488 1488 1487 1487 1487 1487 1487 1487 1486 1486 1486 1485 1485 1484 1484 1483 1482 1482 1481 1481 1480 1479 1479
1435 1437 1439 1441 1442 1444 1446 1447 1449 1451 1453 1455 1458 1461 1464 1467 1469 1471 1472 1474 1475 1477 1478 1479 1480 1481 1482 1482 1483 1484 1484 1485 1486 1486 1486 1487 1487 1487 1487 1487 1487 1487 1487 1487 1487 1487 1487 1487 1487 1486 1486 1486 1486 1485 1485 1485 1484 1484 1484 1483 1482 1482 1482 1481 1480 1479 1479 1478 1477
1435 1437 1438 1440 1442 1443 1445 1446 1448 1450 1452 1455 1458 1461 1464 1467 1469 1471 1472 1474 1475 1476 1477 1478 1479 1480 1481 1482 1482 1483 1484 1484 1485 1485 1486 1486 1486 1486 1486 1486 1486 1486 1486 1486 1486 1486 1486 1486 1486 1485 1485 1485 1484 1484 1484 1484 1483 1483 1482 1482 1482 1481 1480 1480 1479 1478 1477 1477 1476
1434 1436 1437 1439 1441 1442 1444 1446 1447 1450 1452 1455 1458 1461 1464 1466 1468 1470 1472 1473 1474 1476 1477 1478 1479 1480 1481 1481 1482 1482 1483 1484 1484 1485 1485 1485 1485 1485 1485 1486 1486 1486 1486 1485 1485 1485 1485 1485 1485 1485 1484 1484 1484 1483 1483 1483 1482 1482 1481 1481 1480 1480 1479 1478 1478 1477 1476 1475 1474
1434 1435 1437 1438 1440 1442 1443 1445 1447 1450 1453 1456 1459 1462 1464 1466 1468 1470 1471 1473 1474 1475 1476 1477 1478 1479 1480 1481 1481 1482 1482 1483 1483 1484 1484 1484 1484 1485 1485 1485 1485 1485 1485 1485 1484 1484 1484 1484 1484 1484 1483 1483 1483 1482 1482 1482 1481 1481 1480 1480 1479 1478 1478 1477 1476 1476 1475 1474 1473
1433 1435 1436 1438 1439 1441 1443 1445 1448 1450 1453 1456 1459 1462 1464 1466 1467 1469 1471 1472 1474 1475 1476 1477 1477 1478 1479 1480 1481 1481 1482 1482 1483 1483 1483 1483 1484 1484 1484 1484 1484 1484 1484 1484 1483 1483 1483 1483 1483 1483 1482 1482 1482 1482 1481 1481 1480 1479 1479 1478 1478 1477 1477 1476 1475 1474 1473 1472 1471
1432 1434 1436 1437 1439 1441 1443 1445 1448 1451 1453 1456 1459 1462 1463 1466 1467 1469 1471 1472 1473 1474 1475 1476 1477 1478 1478 1479 1480 1481 1481 1482 1482 1482 1482 1483 1483 1483 1483 1483 1483 1483 1483 1483 1482 1482 1482 1482 1482 1482 1482 1481 1481 1480 1480 1479 1479 1478 1478 1477 1477 1476 1475 1474 1473 1472 1472 1471 1470
1432 1433 1435 1437 1439 1441 1443 1446 1448 1451 1454 1457 1459 1462 1463 1466 1467 1469 1470 1472 1473 1474 1475 1476 1477 1477 1478 1478 1479 1480 1480 1481 1481 1482 1482 1482 1482 1482 1482 1482 1482 1482 1482 1482 1482 1481 1481 1481 1481 1481 1480 1480 1480 1479 1479 1478 1478 1477 1477 1476 1475 1474 1473 1472 1472 1471 1470 1469 1468
1432 1433 1435 1437 1439 1441 1444 1446 1449 1452 1454 1457 1459 1462 1464 1466 1467 1468 1470 1471 1472 1473 1474 1475 1476 1477 1477 1478 1478 1479 1480 1480 1481 1481 1481 1481 1481 1481 1481 1481 1481 1481 1481 1481 1481 1480 1480 1480 1480 1479 1479 1479 1478 1478 1477 1477 1476 1476 1475 1474 1473 1473 1472 1471 1470 1469 1468 1467 1467
1431 1433 1434 1437 1439 1442 1444 1447 1450 1452 1455 1457 1460 1462 1464 1466 1467 1468 1469 1471 1472 1473 1474 1475 1475 1476 1477 1477 1478 1478 1479 1479 1480 1480 1480 1480 1480 1480 1480 1480 1480 1480 1480 1480 1480 1479 1479 1479 1479 1478 1478 1477 1477 1476 1476 1475 1475 1474 1473 1473 1472 1471 1470 1469 1468 1467 1467 1466 1465
1431 1432 1434 1437 1439 1442 1445 1448 1451 1453 1455 1458 1460 1462 1464 1465 1467 1468 1469 1470 1471 1472 1473 1474 1475 1476 1476 1477 1477 1478 1478 1479 1479 1479 1479 1479 1479 1479 1479 1479 1479 1479 1479 1479 1479 1478 1478 1478 1477 1477 1477 1476 1476 1475 1474 1474 1473 1473 1472 1471 1471 1470 1469 1468 1467 1466 1465 1464 1463
1430 1432 1435 1437 1440 1443 1446 1448 1451 1453 1456 1458 1460 1462 1464 1465 1467 1468 1469 1470 1471 1472 1473 1473 1474 1475 1476 1476 1477 1477 1477 1478 1478 1478 1478 1478 1479 1479 1478 1478 1478 1478 1478 1478 1478 1477 1477 1477 1477 1476 1476 1475 1474 1474 1473 1472 1472 1471 1471 1470 1469 1468 1467 1467 1466 1465 1464 1463 1462
1430 1432 1435 1438 1441 1443 1446 1448 1451 1453 1456 1458 1460 1462 1463 1465 1466 1467 1468 1469 1470 1471 1472 1473 1474 1474 1475 1475 1476 1477 1477 1477 1477 1477 1477 1478 1478 1478 1477 1477 1477 1477 1477 1477 1477 1477 1476 1476 1475 1475 1474 1474 1473 1473 1472 1472 1471 1470 1469 1468 1468 1467 1466 1465 1464 1463 1462 1462 1461
1430 1433 1436 1438 1441 1444 1447 1449 1451 1454 1456 1458 1460 1462 1463 1465 1466 1467 1468 1469 1470 1471 1472 1472 1473 1474 1474 1475 1475 1476 1476 1476 1477 1477 1477 1477 1477 1477 1477 1477 1477 1476 1476 1476 1476 1476 1475 1475 1474 1474 1473 1473 1472 1472 1471 1471 1470 1469 1468 1467 1466 1465 1465 1464 1463 1462 1461 1460 1459
1431 1434 1436 1439 1442 1444 1447 1449 1452 1454 1456 1458 1460 1461 1463 1464 1465 1467 1468 1469 1470 1471 1471 1472 1472 1473 1473 1474 1474 1475 1475 1476 1476 1476 1476 1476 1476 1476 1476 1476 1476 1475 1475 1475 1475 1474 1474 1474 1473 1473 1472 1472 1471 1470 1470 1469 1468 1467 1467 1466 1465 1464 1463 1462 1461 1460 1459 1459 1458
1432 1434 1437 1440 1442 1445 1447 1449 1452 1454 1456 1457 1459 1461 1462 1464 1465 1466 1467 1468 1469 1470 1471 1471 1472 1472 1473 1473 1474 1474 1474 1475 1475 1475 1475 1475 1475 1475 1475 1475 1474 1474 1474 1474 1474 1473 1473 1472 1472 1472 1471 1470 1470 1469 1468 1467 1467 1466 1465 1464 1463 1462 1461 1460 1459 1459 1458 1457 1456
1432 1435 1437 1440 1442 1445 1447 1449 1452 1453 1455 1457 1459 1460 1462 1463 1465 1466 1467 1468 1469 1469 1470 1471 1471 1472 1472 1472 1473 1473 1473 1474 1474 1474 1474 1474 1474 1474 1474 1474 1473 1473 1473 1473 1472 1472 1472 1471 1471 1470 1469 1469 1468 1467 1467 1466 1465 1464 1463 1462 1461 1460 1460 1459 1458 1457 1457 1456 1455
1433 1435 1437 1440 1443 1445 1447 1449 1451 1453 1455 1457 1458 1460 1462 1463 1464 1466 1467 1467 1468 1469 1469 1470 1471 1471 1472 1472 1472 1472 1473 1473 1473 1473 1473 1473 1473 1473 1473 1472 1472 1472 1472 1472 1471 1471 1470 1470 1469 1469 1468 1467 1467 1466 1465 1464 1463 1462 1461 1461 1460 1459 1458 1457 1457 1456 1455 1454 1453
1433 1435 1438 1440 1443 1445 1447 1449 1451 1453 1455 1457 1458 1460 1461 1463 1464 1465 1466 1467 1468 1468 1469 1470 1470 1471 1471 1471 1472 1472 1472 1472 1472 1472 1472 1472 1472 1472 1472 1472 1472 1471 1471 1471 1470 1470 1469 1469 1468 1467 1467 1466 1465 1464 1463 1462 1462 1461 1460 1459 1458 1458 1457 1456 1455 1454 1453 1452 1452
1434 1436 1438 1441 1443 1446 1448 1450 1451 1453 1455 1456 1458 1460 1461 1462 1464 1465 1466 1467 1467 1468 1469 1469 1470 1470 1470 1471 1471 1471 1471 1472 1472 1472 1472 1472 1472 1471 1471 1471 1471 1470 1470 1470 1469 1469 1468 1467 1467 1466 1465 1464 1463 1462 1462 1461 1460 1459 1458 1457 1457 1456 1455 1454 1453 1452 1452 1451 1450
1435 1437 1439 1442 1444 1446 1448 1450 1452 1453 1455 1456 1458 1459 1461 1462 1463 1464 1465 1466 1467 1467 1468 1469 1469 1469 1470 1470 1470 1471 1471 1471 1471 1471 1471 1471 1471 1471 1470 1470 1470 1469 1469 1469 1468 1467 1467 1466 1466 1465 1464 1463 1462 1461 1460 1459 1458 1457 1457 1456 1455 1454 1454 1453 1452 1451 1450 1449 1449
1436 1438 1440 1442 1444 1447 1448 1450 1452 1453 1455 1456 1458 1459 1461 1462 1463 1464 1465 1466 1467 1467 1468 1468 1468 1469 1469 1469 1470 1470 1470 1470 1470 1470 1470 1470 1470 1470 1469 1469 1469 1468 1468 1468 1467 1467 1466 1465 1464 1463 1462 1462 1461 1460 1459 1458 1457 1456 1455 1454 1454 1453 1452 1451 1451 1450 1449 1448 1447
1436 1438 1441 1443 1445 1447 1448 1450 1452 1453 1455 1456 1458 1459 1460 1462 1463 1464 1465 1466 1466 1467 1467 1467 1468 1468 1468 1468 1469 1469 1469 1469 1469 1469 1469 1469 1469 1469 1469 1468 1468 1467 1467 1467 1466 1465 1464 1463 1462 1462 1461 1460 1459 1458 1457 1456 1455 1454 1453 1453 1452 1452 1451 1450 1449 1448 1448 1447 1446
1437 1439 1441 1443 1445 1447 1449 1450 1452 1453 1455 1456 1457 1459 1460 1462 1463 1464 1464 1465 1466 1466 1467 1467 1467 1467 1468 1468 1468 1468 1468 1468 1468 1468 1468 1468 1468 1468 1468 1467 1467 1467 1466 1466 1465 1464 1463 1462 1461 1460 1459 1458 1457 1457 1456 1454 1454 1453 1452 1452 1451 1450 1449 1449 1448 1447 1447 1446 1445
1437 1439 1442 1444 1446 1447 1449 1450 1452 1453 1455 1456 1458 1459 1460 1462 1462 1463 1464 1465 1465 1466 1466 1466 1467 1467 1467 1467 1467 1467 1467 1468 1468 1468 1468 1468 1468 1467 1467 1466 1466 1465 1465 1465 1464 1463 1462 1461 1460 1459 1458 1457 1456 1455 1454 1453 1452 1451 1451 1450 1449 1449 1448 1447 1447 1446 1445 1445 1444
1438 1440 1442 1444 1446 1448 1449 1451 1452 1453 1455 1457 1458 1459 1460 1461 1462 1463 1464 1464 1465 1465 1466 1466 1466 1466 1466 1466 1467 1467 1467 1467 1467 1467 1467 1467 1467 1467 1466 1466 1465 1464 1463 1463 1462 1461 1460 1459 1458 1457 1456 1455 1454 1453 1452 1451 1450 1450 1449 1449 1448 1447 1447 1446 1446 1445 1444 1443 1442
1440 1442 1443 1445 1447 1448 1449 1451 1452 1454 1455 1457 1458 1459 1460 1461 1462 1462 1463 1464 1464 1465 1465 1465 1465 1465 1466 1466 1466 1466 1467 1467 1467 1467 1467 1466 1466 1466 1465 1465 1464 1462 1462 1462 1461 1460 1459 1458 1457 1456 1455 1453 1452 1451 1450 1450 1449 1448 1448 1447 1447 1446 1446 1445 1445 1444 1443 1442 1440
1441 1442 1444 1446 1447 1448 1450 1452 1453 1454 1455 1457 1458 1459 1460 1461 1462 1462 1463 1463 1464 1464 1464 1464 1465 1465 1465 1466 1466 1466 1466 1466 1466 1466 1466 1465 1465 1465 1464 1464 1463 1462 1461 1460 1459 1458 1457 1457 1455 1454 1453 1452 1451 1450 1449 1448 1447 1447 1446 1446 1445 1445 1445 1444 1443 1442 1441 1440 1439
1442 1443 1445 1447 1448 1449 1451 1452 1453 1454 1456 1457 1458 1459 1460 1461 1461 1462 1462 1463 1463 1463 1464 1464 1464 1464 1465 1465 1465 1465 1465 1465 1465 1465 1465 1465 1464 1464 1463 1462 1462 1460 1459 1458 1457 1457 1456 1455 1454 1452 1451 1450 1449 1448 1447 1447 1446 1445 1445 1445 1444 1444 1443 1442 1442 1440 1439 1438 1437
1443 1445 1446 1447 1449 1450 1451 1452 1453 1455 1456 1457 1458 1459 1460 1460 1461 1462 1462 1462 1462 1463 1463 1463 1464 1464 1464 1464 1465 1465 1465 1465 1465 1464 1464 1464 1463 1462 1462 1461 1460 1459 1458 1457 1456 1455 1454 1453 1452 1451 1450 1449 1448 1447 1446 1445 1445 1444 1444 1444 1443 1442 1442 1440 1439 1438 1437 1436 1435
1444 1445 1447 1448 1449 1450 1452 1452 1454 1455 1456 1457 1458 1459 1459 1460 1461 1461 1462 1462 1462 1462 1463 1463 1463 1464 1464 1464 1464 1464 1464 1464 1463 1463 1463 1462 1462 1461 1460 1460 1459 1458 1457 1456 1455 1454 1453 1452 1451 1449 1448 1447 1446 1446 1445 1444 1443 1443 1443 1442 1442 1441 1439 1438 1437 1436 1435 1434 1434
Wind_Speed
32 30 29 27 27 28 30 31 31 30 28 27 26 25 25 25 26 27 27 28 30 31 30 27 24 21 19 17 15 13 11 9 7 5 3 2 1 2 4 5 6 7 7 8 8 8 9 9 9 8 8 8 8 8 8 9 9 10 10 11 11 12 12 13 14 15 15 16 16
31 30 28 27 28 29 30 30 29 28 26 26 25 25 25 26 27 29 30 32 33 32 29 26 23 21 19 17 14 13 11 9 7 5 3 1 1 2 4 5 6 7 7 8 8 8 9 9 9 8 8 8 9 9 9 9 9 10 11 11 12 12 13 14 14 15 16 16 17
31 29 28 28 29 30 30 29 28 26 26 25 25 25 26 27 30 32 34 34 33 30 28 25 23 21 18 16 14 12 11 9 6 4 3 1 1 2 4 5 6 7 7 8 8 9 9 9 9 9 8 9 9 9 10 10 10 10 11 11 12 13 13 14 15 16 16 17 18
30 29 28 29 30 30 30 28 26 26 25 25 25 26 28 31 33 35 35 34 32 29 27 24 22 20 18 16 14 12 10 8 6 4 2 1 1 2 4 5 6 7 7 8 9 9 9 9 9 9 9 9 9 9 10 10 11 11 11 12 12 13 14 15 16 16 17 18 18
29 28 28 30 31 30 29 27 26 25 25 25 26 28 31 35 36 36 35 33 30 28 26 23 22 19 17 15 13 12 10 8 6 4 2 1 1 3 4 5 6 7 8 8 9 9 9 9 9 8 8 9 9 9 10 10 11 12 12 13 13 14 14 15 16 17 18 18 19
28 28 29 31 31 30 28 27 25 24 25 26 28 31 35 37 37 35 34 31 29 27 25 23 20 18 16 15 13 11 9 7 5 4 2 1 1 3 4 5 6 7 8 8 9 9 9 9 9 8 9 9 9 9 9 10 11 12 13 14 15 15 16 16 17 18 19 19 20
28 29 31 32 32 31 28 26 25 25 26 28 31 34 37 37 36 34 32 30 28 26 24 22 19 17 16 14 12 11 9 7 5 3 2 1 2 3 4 5 6 7 8 8 9 9 9 9 9 9 9 9 9 9 10 10 11 12 13 14 15 16 16 17 18 19 19 20 20
28 30 32 33 32 30 28 26 25 26 27 30 33 35 35 34 33 32 31 30 28 26 23 21 18 16 15 13 12 10 8 6 5 3 2 1 2 3 4 5 6 7 8 8 8 8 9 9 9 9 9 9 10 10 10 11 11 12 13 14 15 16 17 18 19 19 20 21 21
30 32 33 33 31 29 27 26 26 27 29 32 35 34 33 31 32 32 31 29 27 25 22 20 18 16 14 12 11 9 8 6 4 3 2 1 2 3 4 6 7 7 8 8 8 8 9 9 9 9 9 10 10 10 11 11 12 12 13 14 15 16 17 18 19 20 20 21 21
33 34 34 32 30 28 27 26 27 29 31 33 34 33 32 32 32 32 31 29 26 23 21 19 17 15 14 12 10 9 7 5 4 3 2 2 2 4 5 6 7 7 8 8 8 8 9 9 9 9 10 10 10 11 11 12 12 13 14 15 16 17 18 19 19 19 20 20 20
34 34 33 31 30 28 27 28 28 30 31 32 32 32 33 33 33 31 29 27 24 22 20 18 17 15 13 12 10 8 7 5 4 2 2 2 3 4 5 6 7 7 8 8 8 8 9 9 9 10 10 10 11 11 12 12 13 14 15 16 17 17 18 19 19 19 20 20 20
34 33 32 31 29 28 28 29 30 31 31 31 31 32 33 33 32 30 28 25 23 21 19 17 16 14 13 11 10 8 6 5 3 2 2 2 3 4 5 6 7 8 8 8 8 9 9 9 9 10 10 11 11 12 12 13 14 15 15 16 17 18 18 19 19 20 20 20 21
33 33 31 30 29 29 30 31 32 31 31 31 32 33 34 33 31 29 27 24 22 20 19 17 15 14 12 11 9 7 6 4 3 2 2 3 3 5 6 6 7 8 8 8 8 9 9 9 9 10 10 11 12 12 13 14 15 15 16 17 17 18 18 18 19 20 20 21 21
33 32 30 29 29 30 31 32 32 32 32 33 34 35 35 33 30 28 25 23 21 20 18 17 15 13 12 10 8 7 5 4 3 2 2 3 4 5 6 7 7 8 8 8 8 9 9 9 9 10 10 11 12 13 14 14 15 16 16 17 18 18 18 19 20 20 20 20 21
33 31 30 29 30 31 32 33 33 33 34 35 36 36 34 32 30 27 25 22 21 19 17 16 15 13 12 10 8 7 5 4 3 3 3 3 4 5 6 7 7 8 8 8 8 9 9 9 9 10 10 11 12 13 14 15 16 17 17 18 18 19 19 19 20 20 20 20 21
32 31 30 30 31 32 33 33 34 35 36 37 37 36 34 31 29 26 24 22 20 18 17 15 14 13 11 10 8 6 5 4 3 3 3 4 4 5 6 7 7 8 8 8 9 9 9 9 10 10 11 11 12 13 14 15 16 17 18 19 19 19 19 20 20 20 20 21 21
31 30 30 31 32 32 33 34 35 37 38 38 37 35 33 30 28 25 23 21 20 18 16 15 13 12 11 9 8 6 5 4 3 3 3 4 5 6 6 7 7 8 8 8 9 9 9 10 10 11 11 12 13 14 15 16 17 18 18 19 19 19 20 20 20 20 20 21 21
30 30 31 31 32 33 35 36 37 38 39 38 36 34 31 29 27 24 22 21 19 17 16 15 13 11 10 8 7 6 4 3 3 3 4 4 5 6 7 7 8 8 8 8 9 9 10 11 11 12 12 13 14 15 16 17 17 18 18 19 19 19 19 19 20 20 21 21 22
30 30 31 32 34 35 36 37 39 39 39 37 35 32 30 27 25 23 22 20 18 16 15 14 12 11 9 8 6 5 4 4 3 3 4 5 5 6 7 7 8 8 8 8 9 9 10 11 12 13 13 14 15 16 17 18 18 18 19 19 19 19 19 19 20 21 22 22 23
30 31 33 34 35 36 38 39 39 39 38 36 33 31 28 26 24 22 21 20 18 16 15 13 12 10 9 7 6 5 4 4 3 4 4 5 6 6 7 7 8 8 8 8 9 10 10 11 12 13 14 15 16 17 18 18 18 19 19 19 19 19 19 19 20 21 22 23 23
31 33 34 36 37 38 39 40 40 38 36 34 31 29 27 25 23 22 20 19 18 16 15 13 11 10 8 7 6 5 4 4 3 4 4 5 6 6 7 7 8 8 8 9 9 10 11 12 13 14 15 16 17 17 18 18 18 19 19 19 19 19 19 19 21 21 22 22 22
32 34 36 37 38 39 40 40 39 37 35 32 30 28 26 24 23 21 20 19 17 16 14 13 11 9 8 7 6 5 4 4 4 4 5 6 6 7 7 7 8 8 9 9 10 11 12 13 13 14 15 16 16 16 17 17 18 18 19 19 19 19 19 20 21 22 22 22 22
34 36 37 38 40 40 41 40 38 36 33 31 29 27 25 24 22 21 20 18 17 15 14 12 10 9 8 7 6 5 4 4 4 4 5 6 6 7 7 7 8 8 9 10 11 11 12 13 14 15 15 16 16 16 16 16 17 18 19 19 19 20 21 21 22 22 22 22 21
36 37 38 40 41 41 40 39 36 34 32 30 28 26 25 23 22 21 19 18 16 14 13 11 10 9 7 6 5 5 4 4 4 4 5 6 6 6 7 7 8 8 9 10 11 12 13 14 14 15 15 16 16 16 16 17 18 18 19 19 20 21 22 22 23 23 22 21 21
36 38 39 41 41 41 39 37 35 33 31 29 27 26 24 23 22 20 19 17 15 14 12 11 10 8 7 6 5 4 4 4 4 4 5 5 6 6 7 8 8 9 10 11 12 13 13 14 15 15 16 16 17 17 18 18 19 19 19 20 20 21 22 23 23 22 21 21 20
38 39 40 41 41 40 38 36 34 32 30 28 26 25 24 23 21 20 18 16 15 13 12 10 9 8 7 5 4 4 4 4 4 4 5 5 6 6 7 8 9 10 11 12 13 14 14 15 16 16 17 17 18 18 19 19 20 20 20 20 21 22 22 23 22 22 21 20 20
39 40 41 42 41 40 37 35 33 31 29 27 26 25 23 22 20 19 17 16 14 13 11 10 9 7 6 5 4 3 4 4 4 4 5 5 6 7 8 9 10 11 11 12 13 14 15 16 17 18 18 18 19 19 20 20 21 21 21 21 21 21 22 22 21 21 20 20 20
40 41 42 42 41 39 36 34 32 30 28 27 25 24 22 21 19 18 16 15 14 12 11 9 8 6 5 4 4 4 4 4 4 4 5 5 6 7 8 10 11 12 12 13 14 15 16 17 18 18 19 19 19 20 20 21 22 22 22 21 20 20 20 21 21 21 20 20 20
41 42 42 41 40 37 35 33 31 29 27 26 24 23 21 20 18 17 15 14 13 11 9 8 7 5 4 4 4 4 5 4 4 4 5 6 6 8 9 10 11 12 13 14 15 16 17 17 18 19 19 20 20 21 21 22 23 23 22 21 20 20 20 20 20 20 20 20 19
41 42 41 40 38 36 33 31 29 28 26 25 23 22 20 19 17 16 15 13 12 10 8 7 5 5 4 4 5 5 5 4 4 5 5 6 7 8 10 11 12 13 14 15 16 17 17 18 19 19 20 20 21 21 22 23 23 23 22 21 20 19 19 20 20 20 20 19 19
41 41 40 38 36 34 32 30 28 26 25 24 22 21 19 18 17 15 14 12 10 9 7 6 5 5 5 5 5 5 4 4 4 5 5 7 8 9 11 12 13 14 14 15 16 17 18 19 19 20 20 21 21 22 23 23 24 23 22 20 19 19 19 19 19 19 19 18 18
40 39 38 36 34 32 30 28 27 25 24 23 21 20 19 17 16 14 12 11 9 8 6 5 5 5 5 5 5 5 4 4 4 5 6 7 9 10 12 13 14 15 15 16 17 18 18 19 20 20 21 21 22 23 23 24 24 22 21 19 18 18 18 18 18 18 17 17 17
39 38 36 34 33 31 29 27 26 24 23 22 20 19 17 16 14 13 11 10 8 7 6 5 5 5 5 5 5 4 4 4 5 6 7 8 9 11 12 14 15 15 16 16 17 18 19 20 20 21 21 22 23 24 24 24 23 21 19 18 17 17 17 17 17 17 17 16 16
38 37 35 33 31 30 28 26 25 23 22 21 19 18 16 14 12 11 10 9 7 6 5 5 5 5 5 5 5 4 5 5 6 7 8 9 10 12 13 15 16 16 17 17 18 19 19 20 21 21 22 23 24 24 25 24 22 20 18 17 16 16 16 16 16 16 15 15 14
37 36 34 32 30 28 27 25 24 22 21 19 18 16 14 12 11 10 9 8 6 5 5 5 5 5 5 4 4 4 5 6 7 8 9 10 11 13 14 15 17 17 17 17 18 19 20 21 21 22 23 24 25 25 25 23 21 19 17 16 16 15 15 15 15 15 14 13 14
35 34 32 31 29 27 26 24 23 21 19 18 16 14 13 11 10 9 8 6 5 5 5 5 5 5 4 4 4 4 5 6 8 9 10 11 12 13 14 16 18 19 19 18 19 19 20 21 22 23 24 25 25 25 24 22 20 18 16 15 14 14 14 14 14 13 13 14 15
33 32 31 30 28 26 24 22 21 19 17 16 14 12 11 10 9 8 7 5 5 4 5 5 5 4 4 3 4 5 6 8 9 10 11 12 13 14 15 16 18 19 19 19 19 20 21 22 23 24 25 25 25 25 23 21 19 17 15 14 13 13 13 12 12 12 13 15 18
32 31 29 28 26 24 22 20 19 17 16 14 12 11 10 9 8 6 5 4 4 5 5 5 4 4 3 4 5 6 7 9 10 11 12 13 14 14 15 16 17 19 20 20 20 21 22 23 23 24 25 25 25 24 22 20 18 16 14 13 12 12 11 11 12 13 14 17 19
31 28 26 24 22 21 19 18 16 15 14 12 11 10 9 7 6 5 5 4 5 5 5 4 3 3 4 5 6 7 9 10 11 12 13 14 15 15 15 16 17 19 20 21 21 22 22 23 24 24 24 24 24 22 21 19 16 14 13 12 11 11 11 11 13 15 17 18 19
27 25 22 21 19 18 17 16 15 13 12 11 9 8 7 6 5 5 5 5 5 4 4 3 3 4 5 6 7 9 10 11 12 12 13 14 15 16 16 17 17 19 20 21 22 23 23 24 24 24 24 23 22 21 19 17 15 12 11 11 11 12 13 14 15 17 18 19 17
23 21 20 18 17 16 15 15 14 12 11 9 8 7 6 5 5 5 5 4 3 3 3 3 4 5 6 7 9 10 11 12 13 14 14 15 16 17 17 17 18 19 20 21 22 23 23 23 23 23 22 22 21 19 17 15 12 11 10 11 12 13 15 17 18 18 17 16 15
Wind_Direction
217 217 218 220 220 217 211 204 200 199 200 201 202 205 207 205 200 195 191 187 185 184 183 180 177 176 177 175 169 161 154 151 150 150 149 138 64 30 25 23 19 15 10 5 360 354 349 345 340 337 333 330 328 325 324 323 323 323 323 324 326 328 329 330 330 330 330 329 326
215 216 218 218 216 210 203 197 195 196 199 203 208 211 211 205 197 190 184 182 183 183 181 177 177 177 176 172 165 158 153 152 153 155 158 152 39 19 20 20 17 13 9 3 357 352 347 342 338 335 331 328 326 324 323 322 322 322 323 324 326 327 327 327 326 326 327 326 324
213 214 215 214 209 202 196 194 194 196 200 206 210 210 206 198 189 183 181 182 182 181 179 176 177 177 175 169 162 157 155 155 157 162 169 178 3 14 17 18 15 11 6 0 355 350 345 341 337 333 330 327 326 324 323 322 321 321 321 322 323 324 324 324 324 324 324 324 323
212 212 211 208 202 197 194 194 195 198 203 207 209 205 197 188 182 181 181 182 182 180 178 177 178 176 172 166 160 157 157 159 163 171 184 218 348 10 15 15 12 8 3 358 353 348 343 339 335 331 329 326 324 323 322 321 320 319 319 319 319 320 321 322 322 323 323 323 322
210 210 207 202 197 195 195 197 198 201 205 208 208 201 191 182 181 181 183 183 181 179 178 179 178 174 169 163 160 159 160 163 169 181 200 242 345 6 13 13 9 4 360 355 350 345 340 336 332 329 325 323 321 319 318 318 318 318 317 317 317 319 320 321 322 322 322 322 321
207 205 202 197 194 194 196 200 203 206 209 211 207 196 185 181 181 183 184 182 180 178 179 179 176 172 166 163 161 161 164 168 177 191 212 261 343 4 9 8 5 360 356 352 347 342 337 333 329 326 323 320 318 316 315 315 316 316 317 317 318 319 321 321 321 321 321 321 322
203 200 197 194 193 194 198 202 205 208 210 209 200 190 183 181 182 184 185 181 179 178 178 176 173 169 166 164 163 165 168 174 185 200 222 275 341 360 4 3 359 356 352 348 344 339 335 331 327 322 320 318 315 314 314 314 315 315 316 317 318 319 321 321 321 320 321 321 321
201 198 195 193 193 196 200 205 206 206 204 199 192 187 184 184 185 185 183 179 178 178 177 173 170 168 166 165 166 168 172 180 191 205 230 285 337 352 356 356 354 351 348 345 341 337 332 328 324 320 318 316 314 313 313 314 314 314 315 316 317 318 319 320 320 320 321 322 322
196 195 194 193 195 199 203 205 205 202 197 192 189 186 186 187 186 182 179 178 179 178 175 171 168 167 167 167 168 171 177 185 196 212 239 293 334 347 350 350 349 347 344 341 338 334 329 325 321 318 316 315 313 313 313 313 313 313 313 315 316 318 319 320 320 321 322 322 322
193 192 192 193 196 200 202 201 200 197 193 189 187 186 185 184 181 179 179 180 179 176 172 170 169 168 168 169 170 174 180 190 201 219 251 300 330 341 344 345 345 343 340 337 334 330 326 322 318 316 315 313 312 312 311 312 312 313 314 315 317 318 319 320 320 321 321 321 320
192 192 192 194 197 199 198 195 193 192 190 188 186 184 181 179 178 178 180 180 177 173 171 171 170 170 170 171 173 177 184 193 206 227 265 306 326 336 339 340 340 339 336 333 329 326 323 319 317 315 314 312 312 311 311 312 313 315 316 317 318 319 320 320 320 319 319 318 318
191 191 193 194 196 196 193 189 188 189 189 188 184 180 177 176 177 179 180 178 175 172 171 171 171 171 172 173 176 180 187 196 211 236 273 306 322 331 334 335 335 334 332 328 325 323 320 317 315 313 313 312 312 312 313 314 315 317 317 318 319 320 320 319 318 317 317 317 317
189 190 191 192 193 191 188 186 186 187 186 184 179 176 175 175 177 179 178 176 174 172 172 172 172 172 173 175 178 183 189 199 216 246 279 303 318 326 329 330 330 329 327 324 322 319 316 314 313 312 311 311 311 312 313 314 316 317 318 318 319 319 318 317 316 316 317 318 318
188 188 189 189 189 187 186 184 184 183 182 179 176 174 174 175 177 177 176 175 175 174 173 173 173 174 175 177 181 185 192 204 223 251 282 303 315 322 325 325 325 324 321 319 317 315 314 312 311 310 309 309 310 311 313 314 315 316 317 317 317 317 316 316 316 316 317 318 319
185 186 187 187 187 185 184 183 181 180 177 175 174 174 175 175 176 176 175 175 175 176 176 175 175 175 177 179 182 188 196 209 231 257 283 300 312 318 320 321 319 318 316 314 313 312 310 309 308 307 307 307 308 310 312 313 314 315 315 316 316 316 316 316 316 317 318 318 319
184 184 185 185 185 184 182 180 178 177 175 174 174 175 175 175 175 175 175 175 176 177 177 178 177 177 179 180 183 189 199 215 236 262 284 300 309 314 316 316 314 313 312 311 310 309 308 306 306 305 306 306 307 309 311 312 314 315 315 316 317 317 317 317 317 318 319 320 320
183 184 184 184 183 182 180 178 176 175 174 173 174 175 176 175 175 175 176 177 177 178 178 178 179 180 180 181 185 191 203 219 242 264 284 299 306 310 310 310 309 308 308 307 307 306 306 306 305 305 306 307 307 309 310 312 314 315 316 317 318 318 318 318 318 319 320 320 320
183 182 182 182 181 180 178 177 175 174 173 174 175 176 176 176 176 176 176 178 179 179 179 179 180 181 182 183 187 195 208 226 248 268 285 296 303 306 306 306 305 305 305 305 304 305 305 306 307 307 308 309 309 311 312 314 315 317 318 318 319 319 319 318 318 318 319 320 320
182 180 180 180 179 178 177 176 174 174 173 174 175 176 176 177 177 177 177 177 179 180 181 181 181 181 183 185 191 201 213 230 251 271 285 295 301 304 304 303 303 302 302 301 302 304 305 306 308 309 310 311 312 314 315 316 317 318 319 319 319 319 318 317 317 318 319 320 321
179 178 178 177 176 176 175 175 174 174 174 175 176 177 177 178 179 178 178 177 179 181 182 183 183 183 185 189 197 207 220 235 255 272 286 296 301 301 302 302 301 300 299 299 301 303 305 307 309 311 312 313 315 316 317 318 319 319 319 319 319 318 317 316 316 317 319 320 320
176 176 175 175 175 175 174 174 174 175 175 176 177 177 178 179 180 180 179 179 180 181 182 184 185 186 188 194 202 212 225 240 258 275 288 296 300 300 299 299 298 297 297 299 302 304 307 309 311 312 314 316 317 318 319 319 319 318 318 318 317 317 316 315 315 317 318 319 319
174 174 174 174 174 174 174 174 175 175 176 177 178 179 179 180 180 180 180 181 182 182 183 184 186 188 192 199 207 217 230 247 265 280 290 297 299 298 297 296 296 296 298 301 304 307 309 311 313 314 316 318 319 319 319 317 316 315 316 316 315 314 314 314 315 316 317 318 317
173 172 173 173 174 174 174 175 175 176 177 178 179 180 180 181 181 181 182 182 183 183 184 186 189 192 197 205 213 223 237 256 272 285 293 297 296 295 293 293 295 297 300 303 307 309 311 313 315 316 318 318 318 317 314 313 312 312 313 313 313 313 313 314 316 317 317 317 316
172 172 173 174 174 174 175 175 176 177 178 179 180 181 181 182 182 182 183 183 184 185 187 189 192 196 202 208 216 228 244 265 280 288 291 293 292 290 290 292 294 299 302 306 308 310 312 313 314 315 316 315 314 312 311 311 311 312 312 312 312 313 314 316 317 318 318 317 315
172 173 174 174 174 175 176 177 177 178 179 180 181 182 182 183 183 183 183 184 185 186 189 192 196 200 205 211 220 235 254 272 283 288 288 286 287 288 290 293 297 301 305 308 310 311 312 313 313 313 313 312 311 311 311 312 314 315 315 314 313 314 315 317 318 318 317 315 313
173 174 174 174 175 175 176 178 179 180 181 182 182 183 183 184 184 184 185 185 186 188 191 195 199 202 207 214 228 247 265 275 282 285 284 284 286 289 293 297 301 305 308 310 311 312 313 313 313 313 313 312 312 312 313 314 316 317 318 317 316 315 316 316 317 316 315 312 310
174 175 175 175 175 176 177 179 180 181 182 183 183 184 184 185 185 186 187 187 189 191 195 198 201 205 210 223 242 263 274 278 282 283 285 287 289 293 298 302 305 308 311 312 313 313 314 314 314 314 314 314 314 314 315 316 318 319 320 320 318 317 316 315 314 313 311 309 308
175 175 175 175 176 177 178 180 181 182 183 183 184 184 185 186 186 187 188 190 192 195 198 201 204 210 220 236 257 272 278 280 282 285 290 293 295 298 301 305 308 310 312 313 314 314 314 314 314 314 315 315 315 316 317 318 320 322 322 320 318 315 313 312 311 310 308 307 307
175 175 176 176 177 178 179 180 181 182 183 184 185 185 186 186 187 188 190 192 195 197 200 204 209 218 231 249 267 277 280 280 283 289 293 296 298 301 304 307 309 311 313 314 314 314 314 314 314 314 315 316 317 318 319 320 322 323 322 320 317 313 311 309 308 307 307 307 307
176 175 176 177 177 178 180 181 182 183 183 184 184 185 186 187 188 190 192 194 196 198 201 207 215 227 241 258 273 279 279 280 287 293 296 297 301 303 306 308 309 311 313 313 313 313 313 314 314 315 316 317 318 319 320 321 322 322 322 319 316 312 309 307 306 306 306 306 306
176 176 176 177 178 180 181 182 182 183 183 184 185 185 187 188 189 191 193 195 196 199 204 213 224 238 253 268 276 279 281 287 293 295 298 301 305 307 308 309 309 311 312 313 313 313 313 314 315 316 317 318 319 320 321 321 322 323 322 320 315 311 308 306 306 305 305 304 304
176 176 177 178 180 181 182 182 182 182 183 184 185 187 188 190 192 193 194 194 196 200 209 220 233 248 260 271 278 283 287 292 296 298 300 304 307 309 309 309 309 311 313 313 313 313 314 315 316 317 318 319 320 321 321 322 323 323 322 318 313 309 306 305 304 303 302 301 301
176 176 178 180 182 183 182 182 181 182 184 185 187 189 190 192 194 194 194 194 197 204 215 228 241 252 261 271 280 288 293 297 298 301 303 307 309 310 310 309 309 311 313 314 314 314 315 316 317 318 319 320 321 321 322 323 324 324 321 316 311 306 304 302 301 300 299 298 299
176 177 179 182 183 183 182 181 182 183 185 186 188 189 191 192 192 193 193 195 200 212 227 241 253 261 268 276 286 294 297 297 299 302 305 308 309 310 310 309 309 311 313 314 315 315 316 317 318 319 320 321 321 322 323 324 325 323 319 313 308 304 302 301 300 298 298 297 296
177 179 181 183 183 183 182 182 183 185 186 187 187 187 188 189 189 191 193 199 208 224 242 257 265 271 277 286 294 297 296 297 300 304 307 309 310 311 311 310 309 311 313 315 316 317 318 319 320 320 321 321 322 322 324 325 325 322 317 311 306 303 301 300 300 299 297 296 293
179 181 183 184 183 183 182 183 184 185 185 185 185 185 185 187 189 192 196 206 221 237 251 263 271 277 283 291 294 294 296 299 303 306 308 309 310 311 311 311 311 312 314 317 318 319 320 320 321 321 322 322 323 323 324 325 324 321 317 312 307 303 301 300 300 299 296 292 289
180 183 184 184 183 183 183 183 183 183 183 183 183 183 184 186 189 195 204 217 232 245 257 268 274 280 283 287 290 293 298 303 306 307 308 309 310 311 311 312 312 314 316 318 320 321 321 321 322 322 322 323 323 324 324 324 323 321 317 312 306 303 301 301 300 297 293 289 289
182 183 184 183 182 182 181 181 181 181 180 180 180 182 184 188 192 201 214 231 240 251 263 274 278 280 282 286 291 297 301 304 307 308 308 309 309 310 312 313 314 315 317 319 321 322 322 322 322 322 323 323 324 324 324 324 323 321 317 312 307 303 302 301 297 293 291 291 294
181 181 181 180 180 179 179 178 178 178 177 178 179 182 186 191 198 210 228 246 255 263 271 277 278 280 285 292 297 300 302 304 305 307 307 308 309 311 313 314 316 317 319 320 322 322 323 323 323 323 323 324 324 324 324 323 323 321 318 313 308 304 301 298 293 292 293 296 301
176 176 176 176 177 177 176 175 174 174 175 177 180 184 188 194 206 226 247 258 266 271 274 276 279 286 294 299 302 303 303 304 305 306 307 309 310 312 314 316 318 320 321 322 323 323 324 324 324 324 324 324 324 324 324 324 323 321 317 311 306 302 298 294 294 295 300 305 309
170 170 170 172 173 174 173 172 171 172 174 177 180 185 193 205 226 244 255 262 265 266 268 276 286 294 299 302 304 305 305 306 307 308 309 311 313 315 317 319 321 322 323 323 324 324 324 324 324 324 324 324 324 324 324 325 324 319 313 307 302 299 297 297 300 304 309 312 313